Location: Utrecht
(52.0917°N, 5.1178°E)
Time: 02:50:06
(UTC+02:00)

X-37B - Pass Details

Date: 27 June 2021
Orbit: 383 x 392 km, 45.0° (Epoch: 01 July)

Event Time Altitude Azimuth Distance (km) Brightness Sun altitude
Rises 00:23:32 0° 255° (WSW) 2,256 4.5 -12.6°
Reaches altitude 10° 00:25:53 10° 239° (WSW) 1,402 3.3 -12.7°
Enters shadow 00:28:10 21° 193° (SSW) 913 1.9 -12.8°
